Location: Bastelaar
(51.0950°N, 3.8602°E)
Time: 06:29:49
(UTC+00:00)

ISS - Pass Details

Date: 18 November 2025
Orbit: 416 x 420 km, 51.6° (Epoch: 12 December)

Event Time Altitude Azimuth Distance (km) Brightness Sun altitude
Rises 17:57:20 0° 252° (WSW) 2,366 1.6 -19.2°
Reaches altitude 10° 17:59:26 10° 251° (WSW) 1,502 0.2 -19.6°
Enters shadow 18:02:46 77° 174° (S) 435 -3.8 -20.1°
